Location: Quebec
(46.8000°N, 71.2500°W)
Time: 01:01:05
(UTC-05:00)

OTV 5 (USA 277) - Pass Details

Date: 13 October 2017
Orbit: 404 x 417 km, 43.0° (Epoch: 07 September)

Event Time Altitude Azimuth Distance (km) Brightness Sun altitude
Rises 18:48:11 0° 235° (SW) 2,348 ? -8.8°
Reaches altitude 10° 18:50:27 10° 224° (SW) 1,488 ? -9.2°
Maximum altitude 18:53:24 28° 163° (SSE) 807 ? -9.7°
Enters shadow 18:55:43 14° 108° (ESE) 1,276 ? -10.1°
